Powrót do katalogu

BREEZE-M DEB

AktywnyHEO
NORAD 39328·DEBRIS·🇷🇺 Russia

Wystrzelony Mar 14, 2008 z Baikonur Cosmodrome

Loading…

Następne Przeloty (najbliższe 24 godziny)

TLE

ŚwieżeSource: Space-Track

Epoka: Sep 13, 2026, 23:13 UTC

1 39328U 08011DF  26256.96805066  .00001306  00000-0  82198-1 0  9995
2 39328  48.4793 127.2241 6400285 134.6080 300.0162  2.95999696  3467

Śledź BREEZE-M DEB w czasie rzeczywistym z AllMySat

Download on the App Store